www.pogodaiklimat.ru
ПОГОДА в Плоцк

Архив погоды в Плоцк (Польша)

Время
(UTC), дата
16 21.05
17 21.05
18 21.05
19 21.05
20 21.05
21 21.05
22 21.05
23 21.05
00 22.05
01 22.05
02 22.05
03 22.05
04 22.05
05 22.05
06 22.05
07 22.05
08 22.05
09 22.05
10 22.05
11 22.05
12 22.05
13 22.05
14 22.05
15 22.05
16 22.05
17 22.05
18 22.05
19 22.05
20 22.05
21 22.05
22 22.05
23 22.05
00 23.05
01 23.05
02 23.05
03 23.05
04 23.05
05 23.05
06 23.05
07 23.05
08 23.05
09 23.05
10 23.05
11 23.05
12 23.05
13 23.05
14 23.05
15 23.05
16 23.05
17 23.05
18 23.05
19 23.05
20 23.05
21 23.05
22 23.05
23 23.05
00 24.05
01 24.05
02 24.05
03 24.05
04 24.05
05 24.05
06 24.05
07 24.05
08 24.05
09 24.05
10 24.05
11 24.05
12 24.05
13 24.05
14 24.05
15 24.05
16 24.05
17 24.05
18 24.05
19 24.05
20 24.05
21 24.05
22 24.05
23 24.05
00 25.05
01 25.05
02 25.05
03 25.05
04 25.05
05 25.05
06 25.05
07 25.05
08 25.05
09 25.05
10 25.05
11 25.05
12 25.05
13 25.05
14 25.05
15 25.05
16 25.05
17 25.05
18 25.05
19 25.05
20 25.05
21 25.05
22 25.05
23 25.05
00 26.05
01 26.05
02 26.05
03 26.05
04 26.05
05 26.05
06 26.05
07 26.05
08 26.05
09 26.05
10 26.05
11 26.05
12 26.05
13 26.05
14 26.05
15 26.05
16 26.05
17 26.05
18 26.05
19 26.05
20 26.05
21 26.05
22 26.05
23 26.05
00 27.05
01 27.05
02 27.05
03 27.05
04 27.05
05 27.05
06 27.05
07 27.05
08 27.05
09 27.05
10 27.05
11 27.05
12 27.05
13 27.05
14 27.05
15 27.05
16 27.05
17 27.05
18 27.05
19 27.05
20 27.05
21 27.05
22 27.05
23 27.05
00 28.05
01 28.05
02 28.05
03 28.05
04 28.05
05 28.05
06 28.05
07 28.05
08 28.05
09 28.05
10 28.05
11 28.05
12 28.05
13 28.05
14 28.05
15 28.05
Ветер
(напр.,м/с)
Видим. Явления Облачность Т
(С)
Тd
(С)
f
(%)
Тe
(С)
Тes
(С)
Комфортность P
(гПа)
Po
(гПа)
Тmin
(С)
Tmax
(С)
R
(мм)
R24
(мм)
S
(см)
В 3 35 км н/о +25.6 +10.2 38 +26 +26 жарко 1011.6 999.0
В 3 30 км н/о +24.4 +11.4 44 +26 +26 жарко 1011.4 998.8
В 3 20 км н/о +22.5 +10.9 48 +25 +25 комфорт 1011.5 998.8 +17.6 +26.8
СВ 2 35 км н/о +19.9 +11.1 57 +22 +22 комфорт 1011.7 998.9
В 4 35 км н/о +19.3 +11.6 61 +20 +20 1011.9 999.1
В 3 30 км н/о +19.1 +11.4 61 +20 +20 1012.2 999.3
В 4 40 км н/о +18.3 +11.4 64 +18 +18 1012.5 999.6
В 4 35 км н/о +18.2 +11.7 66 +18 +18 1012.1 999.2
В 4 35 км н/о +16.5 +11.6 73 +16 +16 1011.8 998.8
В 3 35 км н/о +15.6 +12.0 79 +15 +15 1011.8 998.8
В 3 40 км н/о +14.7 +11.8 83 +14 +14 1011.6 998.6
В 3 35 км н/о +14.4 +12.1 86 +13 +13 1011.7 998.6
В 4 26 км н/о +15.4 +12.3 82 +14 +14 1011.2 998.2
В 4 27 км н/о +16.8 +12.9 78 +16 +16 1011.2 998.3
В 5 28 км 4/0
[Ac trans Ci fib]
+18.9 +13.7 72 +20 +22 1011.2 998.3 +14.1 +22.5
В 4 26 км 4/0
[Ac cast Ci fib]
+21.2 +14.4 65 +24 +28 комфорт 1011.0 998.2
В 6 29 км 5/0
[Ac cast Ci fib]
+23.1 +14.1 57 +27 +30 душно 1010.7 998.0
В 6 {11} 30 км 6/1 1000 м
[Cu hum Ac trans Cc]
+24.3 +14.1 53 +27 +30 жарко 1010.3 997.7
В 7 {11} 28 км 6/1 1000 м
[Cu hum Ac trans Ci fib]
+25.4 +13.6 48 +28 +30 жарко 1009.9 997.3
В 7 {10} 28 км 8/1 1000 м
[Cu med, cong Ac cast Ci fib]
+25.9 +13.7 47 +28 +31 жарко 1009.5 997.0
В 5 {11} 28 км 8/3 1000 м
[Cu med, cong Ac trans Ci fib]
+26.5 +13.3 44 +28 +32 жарко 1008.8 996.3
В 6 {10} 30 км 8/3 1000 м
[Cu med, cong Ac trans Ci fib]
+27.4 +13.7 43 +29 +32 жарко 1008.2 995.7
В 5 {10} 30 км н/о +26.6 +12.6 42 +28 +28 жарко 1008.2 995.7
ЮВ 4 {10} 28 км н/о +26.2 +11.1 39 +27 +27 жарко 1008.2 995.7
ЮВ 5 26 км слаб. морось н/о +25.0 +10.8 41 +26 +26 жарко 1008.0 995.4
ЮЗ 5 35 км в посл. час морось н/о +22.8 +13.8 57 +26 +26 жарко 1008.8 996.1
СЗ 2 {10} 29 км н/о +21.2 +14.4 65 +24 +24 комфорт 1009.3 996.6 +18.9 +27.7 0.0
СВ 1 28 км н/о +18.3 +14.2 77 +20 +20 1010.3 997.4
ЮВ 1 23 км н/о +17.4 +14.7 84 +18 +18 1010.8 997.9
В 1 16 км н/о +16.7 +14.5 87 +18 +18 1010.6 997.7
ЮВ 2 20 км н/о +16.8 +14.3 85 +17 +17 1010.8 997.9
ЮВ 1 23 км н/о +17.0 +14.6 86 +18 +18 1011.0 998.1
В 2 18 км в посл. час морось н/о +16.8 +15.0 89 +17 +17 1011.2 998.3 0.0
В 2 18 км в посл. час дождь н/о +16.7 +15.1 90 +17 +17 1011.4 998.4
В 2 18 км н/о +16.8 +14.4 86 +17 +17 1011.2 998.3
В 2 11 км слаб. дождь н/о +16.1 +14.6 91 +16 +16 1011.7 998.7
В 4 25 км слаб. ливневой дождь н/о +16.3 +14.8 91 +16 +16 1012.0 999.0
В 3 19 км слаб. ливневой дождь н/о +16.1 +14.6 91 +16 +16 1012.1 999.1
В 3 21 км в посл. час ливневой дождь 10/10 300 м
[Cb cap]
+16.6 +15.1 91 +16 +16 1012.5 999.5 +16.0 +21.2 1 1.1
ЮВ 4 17 км слаб. ливневой дождь 10/10 300 м
[Cb cap]
+17.3 +15.8 91 +17 +17 1012.8 999.9
ЮВ 3 12 км слаб. ливневой дождь 10/10 200 м
[Cb cap]
+16.9 +15.9 94 +17 +17 1013.3 1000.3
Ю 3 14 км в посл. час ливневой дождь 10/9 300 м
[Cb cap]
+18.5 +16.3 87 +19 +20 1013.6 1000.7
Ю 3 23 км 10/9 300 м
[Sc]
+19.8 +16.1 79 +22 +23 комфорт 1014.1 1001.2
Ю 3 40 км 9/8 300 м
[Cb calv Ac trans]
+19.5 +14.3 72 +21 +23 комфорт 1014.6 1001.7
ЮЗ 4 40 км {ливн. дождь} 9/6 600 м
[Cb cap Ac trans]
+21.2 +14.8 67 +24 +26 комфорт 1014.8 1002.0 0.2
ЮЗ 5 30 км 9/6 600 м
[Cb cap Ac trans Ci fib]
+21.2 +14.4 65 +24 +26 комфорт 1015.0 1002.2
Ю 2 30 км н/о +21.6 +13.0 58 +24 +24 комфорт 1015.2 1002.4
Ю 2 35 км н/о +21.1 +13.3 61 +23 +23 комфорт 1015.5 1002.7
Ю 2 29 км н/о +20.5 +13.2 63 +23 +23 комфорт 1015.7 1002.9
ЮВ 1 25 км в посл. час дождь н/о +20.0 +14.8 72 +23 +23 комфорт 1016.0 1003.1
Ю 1 26 км н/о +19.2 +14.7 75 +22 +22 комфорт 1016.1 1003.2 +16.6 +22.3 0.2
ЮВ 1 24 км н/о +18.6 +14.9 79 +20 +20 1016.7 1003.8
В 2 12 км н/о +17.1 +15.3 89 +17 +17 1017.2 1004.2
СВ 1 11 км н/о +16.7 +15.1 90 +18 +18 1017.3 1004.3
ЮВ 1 2900 м дымка н/о +14.9 +13.9 94 +15 +15 1017.9 1004.8
ЮВ 1 4200 м дымка н/о +14.4 +13.6 95 +15 +15 1018.3 1005.2
В 1 3900 м дымка н/о +14.9 +14.4 97 +15 +15 1018.4 1005.3
Ю 1 2700 м слаб. ливневой дождь н/о +15.2 +14.9 98 +16 +16 1018.4 1005.3
В 1 1700 м дымка н/о +15.3 +15.1 99 +16 +16 1018.4 1005.3
штиль 0 900 м слаб. ливневой дождь н/о +15.0 +14.7 98 +15 +15 1018.4 1005.3
С 1 2500 м в посл. час туман н/о +15.8 +15.6 99 +16 +16 1018.6 1005.5
В 1 3300 м дымка н/о +16.8 +16.5 98 +18 +18 1018.9 1005.9
В 2 4500 м дымка 9/9 1000 м
[Sc]
+17.8 +17.0 95 +18 +19 1019.2 1006.2 +14.2 +19.2 0.2 0.4
В 2 8000 м дымка 9/4 600 м
[Cu Sc Ac trans]
+19.6 +17.2 86 +22 +25 комфорт 1019.4 1006.5
В 2 11 км 9/4 600 м
[Cu med, cong Ac trans Ci fib]
+20.6 +16.4 77 +24 +29 комфорт 1019.6 1006.7
В 3 18 км 6/4 600 м
[Cu med, cong Ac trans Ci fib]
+21.8 +15.4 67 +25 +31 комфорт 1019.6 1006.8
СВ 2 19 км 6/4 600 м
[Cu med, cong Ac trans Ci fib]
+22.7 +16.0 66 +27 +35 душно 1019.6 1006.8
В 3 25 км 6/4 1000 м
[Cu med, cong Ac trans Ci fib]
+24.8 +15.1 55 +28 +34 жарко 1019.0 1006.3
В 3 20 км 5/4 1000 м
[Cu med, cong Ac trans]
+25.4 +14.8 52 +28 +35 жарко 1018.5 1005.8
В 3 27 км 5/5 1000 м
[Cu med, cong]
+25.6 +14.1 49 +28 +33 жарко 1017.9 1005.2
ЮВ 4 27 км н/о +26.7 +11.6 39 +28 +28 жарко 1017.2 1004.6
Ю 4 25 км н/о +27.1 +8.0 30 +27 +27 жарко 1016.9 1004.3
ЮВ 4 35 км н/о +26.2 +9.1 34 +27 +27 жарко 1017.1 1004.5
Ю 5-13 {13} 27 км н/о +22.9 +10.7 46 +25 +25 комфорт 1018.0 1005.2
ЮЗ 4 {13} 45 км н/о +18.4 +11.5 64 +19 +19 1019.2 1006.2 +17.8 +27.5
С 2 30 км н/о +17.0 +12.3 74 +17 +17 1019.6 1006.6
СВ 3 35 км н/о +16.1 +12.8 81 +16 +16 1019.0 1005.9
В 3 35 км н/о +15.0 +12.3 84 +14 +14 1019.2 1006.1
ЮВ 2 35 км н/о +14.5 +12.2 86 +14 +14 1020.1 1006.9
ЮВ 1 24 км н/о +12.6 +11.0 90 +13 +13 1019.8 1006.6
Ю 1 28 км н/о +13.3 +11.4 88 +13 +13 1019.9 1006.7
В 1 9000 м н/о +11.1 +10.3 95 +11 +11 1019.4 1006.1
В 2 9000 м н/о +11.1 +10.6 97 +10 +10 1019.5 1006.2
ЮВ 1 14 км н/о +11.3 +11.0 98 +11 +11 1019.9 1006.6
ЮВ 2 18 км н/о +14.1 +12.8 92 +14 +14 1020.1 1006.9
ЮВ 2 23 км н/о +16.2 +13.9 86 +16 +16 1020.0 1006.9
Ю 2 30 км н/о +18.7 +13.8 73 +20 +20 1019.9 1006.9 +10.7 +18.8
Ю 1 26 км н/о +20.1 +13.8 67 +23 +23 комфорт 1019.7 1006.8
ЮВ 2 30 км н/о +22.4 +12.6 54 +25 +25 комфорт 1019.4 1006.6
ЮВ 3 25 км н/о +23.7 +13.0 51 +26 +26 жарко 1019.4 1006.6
ЮВ 4 23 км н/о +24.4 +12.7 48 +26 +26 жарко 1019.4 1006.7
ЮВ 4 25 км н/о +25.7 +12.2 43 +27 +27 жарко 1019.2 1006.5
ЮВ 4 30 км н/о +25.8 +12.3 43 +27 +27 жарко 1018.9 1006.2
Ю 3 25 км н/о +25.4 +10.8 40 +26 +26 жарко 1018.5 1005.8
ЮВ 2 15 км н/о +24.0 +12.0 47 +26 +26 жарко 1018.0 1005.3
ЮВ 2-11 {11} 24 км н/о +23.5 +12.8 51 +26 +26 жарко 1017.7 1005.0
СЗ 1 {13} 17 км в посл. час дождь н/о +16.2 +14.6 90 +17 +17 1018.3 1005.2
СЗ 2 30 км в посл. час дождь н/о +18.4 +14.1 76 +19 +19 1018.7 1005.7
С 2 {13} 22 км н/о +17.6 +14.3 81 +18 +18 1018.7 1005.7 +16.1 +26.3 5
С 2 25 км н/о +17.0 +13.3 79 +17 +17 1019.1 1006.1
ЮЗ 5 {6} 24 км в посл. час дождь н/о +16.9 +13.2 79 +16 +16 1020.0 1006.9
СВ 2 {6} 25 км н/о +16.4 +13.1 81 +17 +17 1020.3 1007.2
СВ 3 30 км н/о +15.7 +13.2 85 +15 +15 1019.8 1006.7
С 4 18 км н/о +15.4 +13.8 90 +14 +14 1019.9 1006.8
В 2 {6} 26 км н/о +14.7 +13.2 91 +14 +14 1020.0 1006.8 0.1
ЮВ 2 10 км н/о +14.3 +13.3 94 +14 +14 1020.3 1007.1
В 3 10 км дымка н/о +13.8 +13.2 96 +13 +13 1020.1 1006.9
В 3 17 км н/о +14.5 +13.4 93 +14 +14 1020.3 1007.1
В 2 17 км н/о +14.5 +13.2 92 +14 +14 1020.6 1007.4
В 2 13 км н/о +14.4 +13.3 93 +14 +14 1020.8 1007.6
ЮВ 1 19 км н/о +17.7 +15.9 89 +19 +19 1020.8 1007.8 +13.7 +17.9 0.1 5.3
ЮВ 2 23 км н/о +19.4 +15.5 78 +22 +22 комфорт 1021.0 1008.0
ЮВ 1 30 км н/о +20.9 +14.3 66 +25 +25 комфорт 1021.2 1008.3
В 3 27 км н/о +22.9 +14.5 59 +27 +27 душно 1021.2 1008.4
В 3 28 км н/о +24.2 +14.6 55 +27 +27 жарко 1020.8 1008.1
В 4 28 км н/о +24.8 +10.6 41 +26 +26 жарко 1020.9 1008.2
В 3 30 км н/о +25.5 +12.3 44 +27 +27 жарко 1020.6 1007.9
ЮВ 3 29 км н/о +26.3 +12.7 43 +28 +28 жарко 1020.2 1007.5
В 2 30 км н/о +25.1 +12.3 45 +27 +27 жарко 1019.7 1007.0
ЮВ 3 30 км н/о +26.2 +12.3 42 +28 +28 жарко 1019.4 1006.8
Ю 6-12 {12} 10 км ливневой дождь н/о +19.0 +11.3 61 +19 +19 1020.8 1007.8
С 1 20 км слаб. ливневой дождь н/о +18.0 +13.5 75 +19 +19 1020.9 1007.9
С 3 {12} 35 км в посл. час дождь н/о +18.2 +13.3 73 +19 +19 1021.3 1008.3 +17.5 +26.5 0.8
СВ 2 35 км н/о +18.1 +11.9 67 +19 +19 1021.5 1008.5
СВ 2 30 км н/о +17.0 +12.5 75 +17 +17 1021.6 1008.5
СВ 2 35 км н/о +16.9 +12.6 76 +17 +17 1021.6 1008.5
СВ 3 30 км н/о +17.1 +11.8 71 +17 +17 1021.5 1008.4
СВ 1 27 км н/о +15.7 +11.5 76 +16 +16 1021.8 1008.7
СВ 3 15 км н/о +12.7 +10.9 89 +11 +11 1021.9 1008.6 0.0
В 3 22 км н/о +13.0 +10.5 85 +12 +12 1021.4 1008.1
В 2 20 км н/о +12.1 +9.7 85 +11 +11 1021.3 1008.0
В 3 24 км н/о +12.4 +9.0 80 +11 +11 1021.3 1008.0
В 2 30 км н/о +14.6 +9.2 70 +14 +14 1021.1 1007.9
ЮВ 4 30 км н/о +16.5 +8.7 60 +16 +16 1021.3 1008.2
ЮВ 3 26 км 1/0
[Ci fib]
+18.2 +9.8 58 +19 +23 1021.2 1008.2 +11.9 +18.7 0.0 0.8
ЮВ 3 27 км 1/0
[Ci fib]
+20.3 +11.0 55 +22 +29 комфорт 1021.1 1008.2
Ю 3 35 км 1/0
[Ci fib]
+21.6 +10.1 48 +23 +33 комфорт 1021.1 1008.2
Ю 3 25 км 3/0
[Ac trans Ci fib]
+23.7 +11.1 45 +25 +36 комфорт 1021.0 1008.2
Ю 4 {9} 25 км 1/1 1500 м
[Cu hum Ci fib]
+25.4 +8.4 34 +26 +36 жарко 1020.4 1007.7
ЮВ 5 {12} 25 км 1/1 1500 м
[Cu med, cong]
+26.6 +5.5 26 +26 +34 жарко 1020.1 1007.5
Ю 4 {12} 30 км 1/1 1500 м
[Cu med, cong]
+26.7 +5.0 25 +26 +35 жарко 1019.7 1007.1
ЮВ 3 35 км 3/1 1500 м
[Cu med, cong Ci fib]
+27.1 +5.4 25 +26 +35 жарко 1019.2 1006.6
Ю 4 30 км н/о +26.9 +2.7 21 +25 +25 комфорт 1018.7 1006.1
Ю 4 30 км н/о +26.7 +1.9 20 +25 +25 комфорт 1018.1 1005.5
ЮВ 3 35 км н/о +26.3 +2.2 21 +25 +25 комфорт 1017.6 1005.0
ЮВ 3 30 км н/о +25.5 +2.8 23 +24 +24 комфорт 1017.6 1004.9
ЮВ 1 30 км н/о +23.8 +5.6 31 +24 +24 комфорт 1017.7 1005.0 +18.2 +27.3
В 2 30 км н/о +17.7 +8.3 54 +18 +18 1018.1 1005.1
В 2 30 км н/о +16.9 +7.3 53 +17 +17 1018.4 1005.4
ЮВ 2 35 км н/о +17.4 +6.0 47 +18 +18 1018.3 1005.3
В 3 30 км н/о +16.8 +5.4 47 +17 +17 1018.2 1005.2
В 2 45 км н/о +15.7 +5.6 51 +16 +16 1018.3 1005.2
В 2 35 км н/о +13.9 +6.0 59 +14 +14 1018.3 1005.1
ЮВ 2 40 км н/о +13.9 +6.0 59 +14 +14 1018.1 1004.9
В 2 35 км н/о +13.2 +6.1 62 +13 +13 1017.8 1004.6
В 1 35 км н/о +12.5 +6.3 66 +13 +13 1017.7 1004.5
В 2 30 км н/о +14.6 +7.9 64 +14 +14 1017.5 1004.4
ЮВ 3 28 км н/о +17.7 +8.0 53 +18 +18 1017.3 1004.3
ЮВ 4 35 км 3/0
[Ci fib]
+19.7 +8.7 49 +21 +24 комфорт 1017.2 1004.3 +12.4 +23.8
ЮВ 5 25 км 3/0
[Ci fib]
+21.6 +8.5 43 +23 +27 комфорт 1016.9 1004.1
ЮВ 5 35 км 4/0
[Ci]
+24.1 +9.3 39 +25 +31 комфорт 1016.5 1003.8
ЮВ 5 27 км 5/0
[Ci]
+24.8 +8.7 36 +25 +32 комфорт 1016.5 1003.8
Ю 5 35 км 5/1 1500 м
[Cu hum Ac trans Ci fib]
+25.8 +7.8 32 +26 +32 жарко 1016.0 1003.4
ЮВ 5-10 {10} 35 км 5/3 1500 м
[Cu med, cong Ci fib]
+26.2 +7.2 30 +26 +32 жарко 1015.5 1002.9
ЮВ 5 {10} 30 км 6/4 1500 м
[Cu med, cong Ci fib]
+26.9 +6.8 28 +26 +31 жарко 1014.9 1002.3
Ю 4-9 {10} 30 км н/о +27.4 +7.3 28 +27 +27 жарко 1014.2 1001.7
Ю 4 30 км н/о +26.1 +6.7 29 +26 +26 жарко 1013.8 1001.2
ЮВ 4 {10} 35 км н/о +25.8 +5.9 28 +25 +25 комфорт 1013.9 1001.3
Местоположение метеостанции Плоцк (Польша): широта 52.58 долгота 19.73 высота над уровнем моря 109 м.
В архиве по умолчанию представлена погода в Плоцк за последнюю неделю. Архивные данные за месяц целиком и за предыдущие месяцы, начиная с января 2011 года, Вы можете получить, выбрав интересующий диапазон дат из раскрывающегося списка и нажав кнопку "Найти!".
*Определитесь, кто Вы:
Внимание! Время в таблицах - всемирное. Для получения местного времени необходимо прибавить поправку, которая равна 1 ч.
Некоторые строки с данными для отдельных станций могут быть выделены курсивом. Это означает, что фактические данные отсутствуют по различным причинам, а приведенные значения являются расчетными модельными данными для данного пункта наблюдений.
Смотрите также архив погоды в соседних городах и на ближайших метеорологических станциях:
Партнеры нашего сайта:      
Пояснения к столбцам:
  • Ветер - указаны скорость ветра в м/с - средняя за 10 мин, порывы в срок и между сроками (в фигурных скобках) и направление, откуда дует ветер: С - северный,
  • СВ - северо-восточный, В - восточный, ЮВ - юго-восточный, Ю - южный, ЮЗ - юго-западный, З - западный, СЗ - северо-западный.
  • Видимость - горизонтальная дальность видимости в метрах или километрах. При видимости от 1 до 10 км при отсутствии осадков обычно наблюдается дымка, при ухудшении видимости до 1 км и менее - туман. В сухую погоду видимость может ухудшаться дымом, пылью или мглою.
  • Явления - указаны атмосферные явления, наблюдавшиеся в срок или в последний час перед сроком; фигурными скобками обозначены явления, наблюдавшиеся между сроками (за 1-3 часа до срока); квадратными скобками обозначены град или гололедные отложения с указанием их диаметра в мм.
  • Облачность - указаны через наклонную черту общая и нижняя облачность в баллах и высота нижней границы облаков в метрах; квадратными скобками обозначены формы облаков: Ci - перистые, Cs - перисто-слоистые, Cc - перисто-кучевые, Ac - высококучевые, As - высокослоистые, Sc - слоисто-кучевые, Ns - слоисто-дождевые, Cu - кучевые, Cb - кучево-дождевые. Подробнее классификацию облаков см. в Атласе облаков (PDF).
  • T - Температура воздуха - температура, измеренная на высоте 2 м над землей.
  • Td - Температура точки росы - температура, при понижении до которой содержащийся в воздухе водяной пар достигнет насыщения.
  • f - Относительная влажность воздуха - влажноcть воздуха, измеренная на высоте 2 м над землей.
  • Te - Эффективная температура - температура, которую ощущает одетый по сезону человек в тени. Характеристика душности погоды. При расчете учитывается влияние влажности воздуха и скорости ветра на теплоощущения человека.
  • Tes - Эффективная температура на солнце - температура, которую ощущает человек, с поправкой на солнечный нагрев. Характеристика знойности погоды. Зависит от высоты солнца над горизонтом, облачности и скорости ветра. Ночью, в пасмурную погоду, а также при ветре 12 м/с и более поправка равна нулю.
  • P - Атмосферное давление - приведенное к уровню моря атмосферное давление.
  • Po - Атмосферное давление - измеренное на уровне метеостанции атмосферное давление.
  • Tmin - Минимальная температура - минимум температуры воздуха на высоте 2 м над землей.
  • Tmax - Максимальная температура - максимум температуры воздуха на высоте 2 м над землей.
  • R - Количество осадков - Количество выпавших осадков за период времени, мм. При наведении курсора мыши на число - период времени, за который выпало указанное количество осадков.
  • R24 - Количество осадков - Количество выпавших осадков за 24 часа, мм.
  • S - Снежный покров - Высота снежного покрова, см. При наведении курсора мыши на число - состояние снежного покрова и степень покрытия местности в баллах.